Regional Weather Roundup
Issued by NWS

Home | Current Version | Previous Version | Graphics & Text | Print | Product List | Glossary On
Versions: 1 2 3 4 5 6 7 8 9 10 11 12 13 14 15 16 17 18 19 20 21 22 23 24 25 26 27
000
ASUS45 KBOI 161910
RWRID
WEATHER ROUNDUP FOR IDAHO
NATIONAL WEATHER SERVICE BOISE ID
100 PM MDT WED APR 16 2014

NOTE: "FAIR" INDICATES FEW OR NO CLOUDS BELOW 12000 FEET
WITH NO SIGNIFICANT WEATHER AND/OR OBSTRUCTIONS TO VISIBILITY

IDZ012-014-162000-
SOUTHWEST IDAHO


CITY           SKY/WX    TMP DP  RH WIND       PRES   REMARKS
BOISE          MOSUNNY   55  18  23 VRB3      30.05F
CALDWELL       SUNNY     55  23  28 CALM      30.08F
MOUNTAIN HOME  CLOUDY    57   6  13 NW8       30.04F
$$

IDZ016-017-162000-
SOUTHCENTRAL IDAHO


CITY           SKY/WX    TMP DP  RH WIND       PRES   REMARKS
BURLEY         SUNNY     53  17  24 SW10      30.02F
JEROME         SUNNY     51  17  26 SW12G18   30.04F
TWIN FALLS     SUNNY     53  13  20 W13       30.04F
$$

IDZ019>023-162000-
SOUTHEAST IDAHO


CITY           SKY/WX    TMP DP  RH WIND       PRES   REMARKS
IDAHO FALLS    MOSUNNY   48  15  26 SW12G17   30.02F
POCATELLO      MOSUNNY   51  15  23 NW13G20   30.04F
REXBURG        MOSUNNY   45  14  28 VRB6      30.01F
$$

IDZ006-010-011-018-031-032-162000-
CENTRAL IDAHO MOUNTAINS


CITY           SKY/WX    TMP DP  RH WIND       PRES   REMARKS
MCCALL         CLOUDY    45  17  32 VRB5      30.02S
STANLEY          N/A     38   6  26 N7        30.02F WCI  33
SALMON         PTSUNNY   48  16  27 E5        29.99F
CHALLIS        MOSUNNY  N/A N/A N/A VRB3      29.98F
$$

IDZ002-004-006-007-026-162000-
NORTHERN IDAHO


CITY           SKY/WX    TMP DP  RH WIND       PRES   REMARKS
LEWISTON       CLOUDY    57  30  35 NW8       30.06F
LOWELL           N/A     57  31  37 SE6       30.07F
COEUR D`ALENE  CLOUDY    43  37  81 W3        30.05F
MULLAN PASS    LGT SNOW  31  27  85 VRB5      29.97S FOG     WCI  26
$$



USA.gov is the U.S. government's official web portal to all federal, state and local government web resources and services.